Location: Sternwarte ZA, Rosenfeld-Brittheim
(48.2889°N, 8.6789°E)
Time: 22:02:51
(UTC+01:00)

ISS - Pass Details

Date: 04 March 2021
Orbit: 417 x 422 km, 51.6° (Epoch: 02 March)

Event Time Altitude Azimuth Distance (km) Brightness Sun altitude
Exits shadow 04:09:47 19° 62° (ENE) 1,084 -0.9 -28.6°
Drops below altitude 10° 04:10:51 10° 67° (ENE) 1,499 0.0 -28.5°
Sets 04:12:59 0° 72° (ENE) 2,364 1.3 -28.1°
